3800 E. Glenoaks Blvd. Glendale, CA 91206
Phone: 818.243.4100

Scholl Canyon Golf Course

LOWEST AVAILABLE RATE
$7.97
View ScorecardTotal Holes: 18

Scholl Canyon Golf Course

Scholl Canyon Golf Course, located adjacent to Los Angeles in Glendale, CA is considered one of the top mid-length golf courses in the country and is great for beginners. The 18 hole Par 60 course only measures 3,100 yards, but the complex greens make it a challenge even for experienced golfers. The golf course provides great views of downtown Los Angeles and features treacherous canyons that players must contend with to have a chance at Par. If you are just learning how to play, the course offers a well lit grass tee driving range along with instruction through a PGA professional.

Scholl Canyon Golf Course was designed by William Bell in 1981 and is located just 10 minutes from Dodger Stadium and 15 minutes from the Rose Bowl.

Book your tee time online today through Golfzing for the cheapest rates. For information regarding events, lessons or tournaments, follow the links provided or contact the golf course for more details.

Amenities
Pro ShopInstructionTennis Courts
Rental ClubsPull CartSnack Bar
Driving RangePutting Green(s)Cart Rental
Format: 2015-04-18
You don't have Javascript enabled. Hover for more information! But don't worry: you can still use this web site! You have two options:
  • enable Javascript in your browser and then refresh this page, for a much enhanced experience.
  • click the Update button every time you want to update the selection.

There are no upcoming events at this golf course.

Format: 2015-04-18

There were no specials found matching your criteria. Please try again.

 
Feel Like: 64.3 °F Last Updated: Saturday April 18, 2015 8:20 PM
 Temperature: 64.3 °F
 Sunrise: 6:18 am 
 Sunset: 7:25 pm 
 Dewpoint: 36.5 °F
 Relative Humidity: 35.6
 Wind: 222 at 1.3 mph
 Barometer: 29.89 in and holding steady

Today Sun, 4/19 Mon, 4/20 Tue, 4/21 Wed, 4/22 Thu, 4/23 Fri, 4/24
High: 56
Low: 56
High: 75
Low: 55
High: 71
Low: 54
High: 69
Low: 53
High: 69
Low: 52
High: 70
Low: 52
High: 73
Low: 52
Clear. Lows in the mid 40s to mid 50s.
Sunny except for patchy morning low clouds and dense fog. Visibility one quarter mile or less. Highs in the mid 70s to around 80
Areas of low clouds and fog in the morning then sunny. Highs in the upper 60s and 70s.
Low clouds and fog in the morning then sunny. Highs in the mid 60s to mid 70s.
Mostly cloudy in the morning then partly cloudy with a 30 percent chance of showers in the afternoon. Highs in the mid 60s to lower 70s.
Mostly cloudy. A slight chance of showers in the morning then a chance of showers in the afternoon. Highs in the mid 60s to mid 70s. Chance of precipitation 40 percent.
Mostly cloudy with a 30 percent chance of showers. Highs in the mid 60s to mid 70s.
Powered by WeatherBug

Fill in the form below.

3800 E. Glenoaks Blvd. Glendale, CA 91206, US
Enter the address, postcode and/or city from where you want to start your journey.
Nikolay Voronovich
Tom Cunningjam
mark clayton
bob hayashi
DALE ALLEN
Mitchell Chilcutt
Jianjun Shen
Frank Hsieh
Daniel Meneses
Daniel Rubalcava
Brett McMillan
Amy holding
James Clark
David Torres
JOHNNY TSANG
William Winzer
Book a Tee Time
Options
Ride
Walk
ZINGTIMES!
Search

Time
Players
Details
Price
Info
 

5:45 AM
18 holes Cart Included
$29.97$35.00
5,245 ZINGPOINTS!

5:45 AM
9 holes Cart Included
$28.00
4,200 ZINGPOINTS!

5:52 AM
18 holes Cart Included
$29.97$35.00
5,245 ZINGPOINTS!

6:00 AM
18 holes Cart Included
$29.97$35.00
5,245 ZINGPOINTS!

6:07 AM
18 holes Cart Included
$29.97$35.00
5,245 ZINGPOINTS!

6:15 AM
18 holes Cart Included
$29.97$35.00
5,245 ZINGPOINTS!

6:15 AM
9 holes Cart Included
$28.00
4,200 ZINGPOINTS!

6:45 AM
9 holes Cart Included
$28.00
4,200 ZINGPOINTS!

6:52 AM
18 holes Cart Included
$29.97$35.00
5,245 ZINGPOINTS!

6:59 AM
18 holes Cart Included
$29.97$35.00
5,245 ZINGPOINTS!

7:07 AM
18 holes Cart Included
$29.97$35.00
5,994 ZINGPOINTS!

7:15 AM
9 holes Cart Included
$28.00
4,200 ZINGPOINTS!

7:22 AM
18 holes Cart Included
$29.97$35.00
5,994 ZINGPOINTS!

7:37 AM
1
18 holes Cart Included
$29.97$35.00
5,994 ZINGPOINTS!

7:45 AM
18 holes Cart Included
$29.97$35.00
5,994 ZINGPOINTS!

7:52 AM
18 holes Cart Included
$29.97$35.00
5,994 ZINGPOINTS!

7:59 AM
18 holes Cart Included
$29.97$35.00
5,994 ZINGPOINTS!

8:00 AM
18 holes Cart Included
$29.97$35.00
5,994 ZINGPOINTS!

8:07 AM
18 holes Cart Included
$29.97$35.00
5,994 ZINGPOINTS!

8:15 AM
18 holes Cart Included
$29.97$35.00
5,994 ZINGPOINTS!

8:22 AM
18 holes Cart Included
$29.97$35.00
5,994 ZINGPOINTS!

8:37 AM
18 holes Cart Included
$29.97$35.00
5,994 ZINGPOINTS!

8:45 AM
18 holes Cart Included
$29.97$35.00
5,994 ZINGPOINTS!

8:52 AM
18 holes Cart Included
$29.97$35.00
5,994 ZINGPOINTS!

9:00 AM
18 holes Cart Included
$29.97$35.00
5,994 ZINGPOINTS!

9:15 AM
18 holes Cart Included
$29.97$35.00
5,994 ZINGPOINTS!

9:22 AM
18 holes Cart Included
$29.97$35.00
5,994 ZINGPOINTS!

9:37 AM
18 holes Cart Included
$29.97$35.00
5,994 ZINGPOINTS!

9:45 AM
18 holes Cart Included
$29.97$35.00
5,994 ZINGPOINTS!

9:52 AM
18 holes Cart Included
$29.97$35.00
5,994 ZINGPOINTS!

9:59 AM
18 holes Cart Included
$29.97$35.00
5,994 ZINGPOINTS!

10:07 AM
18 holes Cart Included
$29.97$35.00
5,994 ZINGPOINTS!

10:15 AM
18 holes Cart Included
$29.97$35.00
5,994 ZINGPOINTS!

10:22 AM
18 holes Cart Included
$29.97$35.00
5,994 ZINGPOINTS!

10:37 AM
18 holes Cart Included
$29.97$35.00
5,994 ZINGPOINTS!

10:45 AM
18 holes Cart Included
$29.97$35.00
5,994 ZINGPOINTS!

10:52 AM
18 holes Cart Included
$29.97$35.00
5,994 ZINGPOINTS!

10:59 AM
18 holes Cart Included
$29.97$35.00
5,994 ZINGPOINTS!

11:07 AM
18 holes Cart Included
$29.97$35.00
5,245 ZINGPOINTS!

11:22 AM
18 holes Cart Included
$29.97$35.00
5,245 ZINGPOINTS!

11:30 AM
18 holes Cart Included
$29.97$35.00
5,245 ZINGPOINTS!

11:37 AM
18 holes Cart Included
$29.97$35.00
5,245 ZINGPOINTS!

11:45 AM
18 holes Cart Included
$29.97$35.00
5,245 ZINGPOINTS!

11:52 AM
18 holes Cart Included
$29.97$35.00
5,245 ZINGPOINTS!

11:59 AM
18 holes Cart Included
$29.97$35.00
5,245 ZINGPOINTS!

12:00 PM
18 holes Cart Included
$29.97$35.00
5,994 ZINGPOINTS!

12:07 PM
18 holes Cart Included
$29.97$35.00
5,994 ZINGPOINTS!

12:15 PM
18 holes Cart Included
$44.96
8,992 ZINGPOINTS!

12:30 PM
18 holes Cart Included
$29.97$35.00
5,994 ZINGPOINTS!

12:37 PM
18 holes Cart Included
$29.97$35.00
5,994 ZINGPOINTS!

12:45 PM
18 holes Cart Included
$29.97$35.00
5,994 ZINGPOINTS!

12:52 PM
18 holes Cart Included
$29.97$35.00
5,994 ZINGPOINTS!

12:59 PM
18 holes Cart Included
$29.97$35.00
5,994 ZINGPOINTS!

1:07 PM
18 holes Cart Included
$23.97$28.00
4,794 ZINGPOINTS!

1:15 PM
18 holes Cart Included
$23.97$28.00
4,794 ZINGPOINTS!

1:22 PM
18 holes Cart Included
$23.97$28.00
4,794 ZINGPOINTS!

1:37 PM
18 holes Cart Included
$23.97$28.00
4,794 ZINGPOINTS!

1:45 PM
18 holes Cart Included
$23.97$28.00
4,794 ZINGPOINTS!

1:52 PM
18 holes Cart Included
$23.97$28.00
4,794 ZINGPOINTS!

1:59 PM
18 holes Cart Included
$28.00
5,600 ZINGPOINTS!

2:00 PM
18 holes Cart Included
$23.97$28.00
4,794 ZINGPOINTS!

2:07 PM
18 holes Cart Included
$23.97$28.00
4,794 ZINGPOINTS!

2:15 PM
18 holes Cart Included
$23.97$28.00
4,794 ZINGPOINTS!

2:22 PM
18 holes Cart Included
$23.97$28.00
4,794 ZINGPOINTS!

2:30 PM
18 holes Cart Included
$23.97$28.00
4,794 ZINGPOINTS!

2:37 PM
18 holes Cart Included
$23.97$28.00
4,794 ZINGPOINTS!

2:45 PM
18 holes Cart Included
$23.97$28.00
4,794 ZINGPOINTS!

2:52 PM
18 holes Cart Included
$28.00
5,600 ZINGPOINTS!

3:07 PM
18 holes Cart Included
$21.00
4,200 ZINGPOINTS!

3:15 PM
18 holes Cart Included
$21.00
4,200 ZINGPOINTS!

3:22 PM
18 holes Cart Included
$21.00
4,200 ZINGPOINTS!

3:30 PM
18 holes Cart Included
$21.00
4,200 ZINGPOINTS!

3:37 PM
18 holes Cart Included
$21.00
4,200 ZINGPOINTS!

3:45 PM
18 holes Cart Included
$21.00
4,200 ZINGPOINTS!

3:52 PM
18 holes Cart Included
$21.00
4,200 ZINGPOINTS!

4:00 PM
18 holes Cart Included
$12.97$21.00
2,594 ZINGPOINTS!

4:07 PM
18 holes Cart Included
$12.97$21.00
2,594 ZINGPOINTS!

4:15 PM
18 holes Cart Included
$12.97$21.00
2,594 ZINGPOINTS!

4:22 PM
18 holes Cart Included
$12.97$21.00
2,594 ZINGPOINTS!

4:30 PM
18 holes Cart Included
$12.97$21.00
2,594 ZINGPOINTS!

4:37 PM
18 holes Cart Included
$12.97$21.00
2,594 ZINGPOINTS!

4:45 PM
18 holes Cart Included
$12.97$21.00
2,594 ZINGPOINTS!

4:52 PM
18 holes Cart Included
$21.00
4,200 ZINGPOINTS!

5:00 PM
18 holes Cart Included
$7.97$21.00
1,196 ZINGPOINTS!

5:07 PM
18 holes Cart Included
$7.97$21.00
1,196 ZINGPOINTS!

5:15 PM
18 holes Cart Included
$7.97$21.00
1,196 ZINGPOINTS!

5:22 PM
18 holes Cart Included
$7.97$21.00
1,196 ZINGPOINTS!

5:30 PM
18 holes Cart Included
$7.97$21.00
1,196 ZINGPOINTS!

5:37 PM
18 holes Cart Included
$7.97$21.00
1,196 ZINGPOINTS!

5:45 PM
18 holes Cart Included
$7.97$21.00
1,196 ZINGPOINTS!

6:07 PM
18 holes Cart Included
$7.97$21.00
1,196 ZINGPOINTS!

6:15 PM
18 holes Cart Included
$7.97$21.00
1,196 ZINGPOINTS!

6:22 PM
18 holes Cart Included
$7.97$21.00
1,196 ZINGPOINTS!

6:30 PM
18 holes Cart Included
$7.97$21.00
1,196 ZINGPOINTS!

6:37 PM
18 holes Cart Included
$7.97$21.00
1,196 ZINGPOINTS!

Tee Times and Golf Course Discounts